COSMOS 970 DEB, 10562

Orbit data source: Space-Track

COSMOS 970 DEB, 10562 is space debris in LEO originally from a launch on Wed, 21 Dec 1977 UTC launched from the Tyuratam Missile And Space Complex (TTMTR). Debris objects in space refer to the collection of defunct objects orbiting the Earth. Examples of debris include non-operational satellites, rocket bodies, and fragments generated from explosions, collisions, or faulty payload assembly.

Loading next visibility...
Identifier
10562, 1977-121D
Orbit
LEO
Country
Flag of CISCIS
Related business
Manufacturer
Unknown
Mission
Spacecraft
Bus & Motor
Unknown
Mass
Unknown
Launch date (UTC)
1977-12-21 (48 years ago)
Launch vehicle
Unknown
Launch site
Tyuratam Missile And Space Complex (TTMTR)
Object type
Payload
Rocket body
Debris
Shape & HBR
Unknown shape, 0.1 m
Radar Cross Section
Medium (>0.1 m² and <1 m²)

Expand to show TLE details & history
Last TLE update: 15 hours ago

TLE from 15 hours ago
0 COSMOS 970 DEB
1 10562U 77121D   26171.36108850  .00000003  00000-0  14184-3 0  9994
2 10562  65.8697 261.7717 0082335  82.2723 341.8893 13.36796121361930
Epoch: 2026-06-20T08:39Z
TLE epoch observation values (Epoch: 2026-06-20T08:39:58.046Z)
Latitude
55.13302°
Longitude
-97.03431°
Altitude
1,070.815 km
Speed
7.351 km/s
True Right ascension
20h 06m 08s
True Declination
54° 58' 42"
Sunlit
Object was in daylight at epoch
Visualization orbit readout
Latitude
Unknown
Longitude
Unknown
Altitude
Unknown
Speed
Unknown
Apparent Right ascension
Unknown
Apparent Declination
Unknown
Sunlit
N/A
Visualization observer readout
Local Sidereal Time
10:12:24
Azimuth
Unknown
Elevation
Unknown
Doppler factor
Unknown
Orbital elements
Apogee altitude
1,181.512 km
Perigee altitude
1,058.044 km
Semi-major axis
7,497.915 km
Eccentricity
0.00823
Inclination
65.8697°
RAAN
261.7717°
Arg. of periapsis
82.2723°
True anomaly
341.59312°
Mean anomaly
341.8893°
Eccentric anomaly
341.7415°
Mean motion
3.34297 °/min
Orbital period
107.69 mins
BSTAR
0.00014184
Loading maneuver chart data...
Computing Atmospheric mass density...
Loading historical data...
Loading historical data...
Loading historical data...
Loading historical data...
Loading historical data...
Loading historical data...
Loading historical data...

Documentation

Showing up to 5 results
|